Regional Weather Roundup
Issued by NWS Grand Forks, ND

Home | Current Version | Previous Version | Graphics & Text | Print | Product List | Glossary On
Versions: 1 2 3 4 5 6 7 8 9 10 11 12 13 14 15 16 17 18 19 20 21 22 23 24 25 26 27 28 29 30 31 32 33 34 35 36 37 38 39 40 41 42 43 44 45 46 47 48 49 50
000
ASUS43 KFGF 292231
RWRFGF
PRAIRIE TO PINES  WEATHER ROUNDUP
NATIONAL WEATHER SERVICE EASTERN NORTH DAKOTA/GRAND FORKS ND
500 PM CDT FRI AUG 29 2014

 **SATELLITE DATA USED TO AUGMENT SKY COVER AT AUTOMATED STATIONS**
 *****  WEATHER ACROSS EASTERN NORTH DAKOTA  *****

CITY           SKY/WX    TMP DP  RH WIND       PRES   REMARKS
GRAND FORKS    CLOUDY    64  61  88 N20G28    29.78R
GRAND FRKS AFB CLOUDY    64  59  82 N24G31    29.81S
GRAND FRKS NWS   N/A     66 N/A N/A N26         N/A
DEVILS LAKE    CLOUDY    63  52  67 N21G31    29.88R
FARGO          CLOUDY    76  65  68 SW3       29.75S
WAHPETON ARPT  CLOUDY    72  63  73 CALM      29.77S
$$

 ***** WEATHER ACROSS CENTRAL AND WESTERN NORTH DAKOTA  *****

CITY           SKY/WX    TMP DP  RH WIND       PRES   REMARKS
BISMARCK       CLOUDY    71  57  61 N10       29.92R
MINOT          MOSUNNY   69  51  52 NW13      29.94R
JAMESTOWN      CLOUDY    65  60  84 NW16G24   29.83R
MINOT AFB      PTSUNNY   69  51  54 N9        29.94R
GARRISON         N/A     70  53  54 NE14G21   29.94R
WILLISTON      CLOUDY    72  47  40 NE8       29.97S
DICKINSON      CLOUDY    68  55  63 N10       29.97S
HETTINGER      MOSUNNY   69  54  58 N12       29.98S
$$

 *****  OTHER AIRPORT OBSERVATIONS IN OUR AREA  *****

CITY           SKY/WX    TMP DP  RH WIND       PRES   REMARKS
WALHALLA         N/A     63  63 100 N12       29.87S
GRAFTON AIRPOR CLOUDY    63  59  88 N16G24    29.83R
VALLEY CITY AR CLOUDY    70  68  94 N20       29.81R
CANDO          MOCLDY    64  55  72 N15       29.91S
CAVALIER APRT  MOCLDY    59  55  88 N14       29.86S
GWINNER        PTCLDY    79  63  57 N12G18    29.78S
SHEYENNE NWR     N/A     76  66  71 N7        29.95
ROLLA          FAIR      63  50  63 N16G22    29.94S
 ***** THE ABOVE OBSERVATIONS ARE NON NWS ARE NOT QUALITY
       CONTROLLED AND MAY MIS-REPORT RAIN FOR SNOW...
$$

  *****  WEATHER ACROSS NORTHERN MINNESOTA  *****

CITY           SKY/WX    TMP DP  RH WIND       PRES   REMARKS
FLAG ISLAND    DRIZZLE   64  61  88 NE21      29.78R
WARROAD        CLOUDY    66  63  88 N10       29.79R
ROSEAU         MOSUNNY   64  59  82 N13       29.79R
HALLOCK        PTSUNNY   64  57  77 N12G20    29.82R
THF RVR FALLS  CLOUDY    70  64  83 NW6       29.78R
BAUDETTE       CLOUDY    67  65  93 SW5       29.75F
WASKISH        CLOUDY    68  64  88 CALM      29.76F
CROOKSTON      PTSUNNY   72  64  78 CALM      29.76F
$$
  *****  WEATHER ACROSS CENTRAL AND WEST MINNESOTA  *****

CITY           SKY/WX    TMP DP  RH WIND       PRES   REMARKS
FOSSTON        DRIZZLE   64  63  94 NW6       29.78S
BEMIDJI        CLOUDY    71  65  80 CALM      29.76F
PARK RAPIDS    CLOUDY    71  65  81 W6        29.77S
ELBOW LAKE     CLOUDY    71  65  83 NW5       29.78R
WADENA         CLOUDY    70  64  83 W3        29.77F
DETROIT LAKES  CLOUDY    68  64  88 NW9       29.80R
MOORHEAD       PTSUNNY   73  70  88 SE5       29.77S
FERGUS FALLS   CLOUDY    70  66  88 NW3       29.77S
MORRIS MN      PTSUNNY   75  66  73 N13       29.76S
STAPLES        CLOUDY    70  64  83 W3        29.77S
$$
  *****  WEATHER ELSEWHERE ACROSS MINNESOTA  *****

CITY           SKY/WX    TMP DP  RH WIND       PRES   REMARKS
DULUTH         LGT RAIN  65  62  90 SE5       29.76R VSB 3/4
INTRNTL FALLS  CLOUDY    69  63  81 SE5       29.75F
ELY            CLOUDY    63  59  88 CALM      29.77S
CLOQUET        DRIZZLE   64  63  94 CALM      29.76R
WHEATON        MOSUNNY   72  64  78 NW9       29.78S
BRAINERD       CLOUDY    69  65  86 NW3       29.76S
HIBBING        CLOUDY    66  62  87 W3        29.76F
ALEXANDRIA     CLOUDY    72  65  78 NW8       29.79R
SAINT CLOUD    CLOUDY    73  67  81 CALM      29.73F
MINNEAPOLIS    HVY RAIN  69  66  90 NW25G32   29.73R VSB 3/4
$$

  *****  WEATHER ACROSS SOUTH DAKOTA  *****

CITY           SKY/WX    TMP DP  RH WIND       PRES   REMARKS
SIOUX FALLS    CLOUDY    67  65  93 NW3       29.77F
BROOKINGS      NOT AVBL
WATERTOWN      PTSUNNY   76  65  68 NW10      29.79R
HURON          PTSUNNY   82  67  60 N9        29.77R
SISSETON         N/A     78  66  66 N10       29.76R
ABERDEEN       MOSUNNY   78  63  59 NW14      29.78S
MITCHELL       MOSUNNY   81  67  62 NW7       29.78S
PIERRE         PTSUNNY   79  60  52 NW23G30   29.86R
MOBRIDGE       PTSUNNY   70  61  73 N15       29.87R
RAPID CITY     SUNNY     78  53  41 NW13G22   29.98F
$$

  *****  SOME WEATHER IN NEARBY STATES *****

CITY           SKY/WX    TMP DP  RH WIND       PRES   REMARKS
GLASGOW MT     MOSUNNY   71  50  47 SW8       29.96F
GREAT FALLS MT PTSUNNY   79  39  23 CALM      29.88F
CHEYENNE WY    MOSUNNY   72  46  39 NE8       30.12F
SCOTTSBLUFF NE MOSUNNY   82  51  34 NE8       30.00F
OMAHA NE       LGT RAIN  69  66  90 SE7       29.79S FOG
DES MOINES IA  LGT RAIN  74  69  85 S8        29.80R
DAVENPORT IA   MOSUNNY   84  70  62 S10       29.83S
CHICAGO IL     MOSUNNY   86  69  56 S14       29.88F HX  90
EAU CLAIRE WI  TSTM      72  70  93 W6        29.74S FOG
LA CROSSE WI   MOSUNNY   88  72  58 S14       29.73F HX  94
$$

  *****  SOME NATIONAL WEATHER *****

CITY           SKY/WX    TMP DP  RH WIND       PRES   REMARKS
LA GUARDIA NY  PTSUNNY   74  53  48 S13       30.18R
RALEIGH NC     CLOUDY    80  70  71 E9        30.13R
ATLANTA GA     MOSUNNY   91  56  30 SE8       30.05S
NEW ORLEANS LA LGT RAIN  80  74  81 E7        29.96F
OKLAHOMA CITY  PTSUNNY   84  66  54 SW16G24   29.88S
ALBUQUERQUE NM MOSUNNY   84  38  19 VRB5      30.11F
SALT LAKE CITY PTSUNNY   88  37  16 CALM      29.99F
LOS ANGELES CA MOSUNNY   75  63  66 W15       29.84F
BOISE ID       SUNNY     90  40  17 N5        29.86F
SEATTLE WA     CLOUDY    70  53  54 SW13      30.00F
$$

*** WEATHER ACROSS MANITOBA...SASKATCHEWAN AND ONTARIO ***
                ***ONTARIO***

CITY           SKY/WX    TMP DP  RH WIND       PRES   REMARKS
GERALDTON      LGT RAIN  59  57  94 S7        29.82F FOG
THUNDER BAY    LGT RAIN  59  59 100 E9        29.77F FOG
SIOUX LOOKOUT  CLOUDY    64  61  88 SW7       29.76S
TORONTO        PTSUNNY   70  50  49 SE6       30.12F
BIG TROUT LK   SUNNY     64  54  68 W5        29.75F
PICKLE LAKE    LGT RAIN  59  57  94 N12G26    29.75R FOG
DRYDEN         CLOUDY    64  63  94 SW6       29.76S
KENORA         PTSUNNY   59  57  94 N9        29.81R
$$
                *** MANITOBA***

CITY           SKY/WX    TMP DP  RH WIND       PRES   REMARKS
BRANDON        MOSUNNY   68  45  42 N13G18    29.94R
DAUPHIN        SUNNY     66  50  55 NE10      29.94S
ISLAND LAKE    PTSUNNY   59  48  67 NW10      29.87R
PILOT MOUND      N/A     63  52  67 N16G22      N/A
THE PAS        MOSUNNY   63  39  42 NW7       29.93S
THOMPSON       PTSUNNY   57  39  51 NW7       29.89F
WINNIPEG       PTSUNNY   66  55  68 N15G23    29.88
LYNN LAKE      CLOUDY    55  37  50 MISG      29.91S
CHURCHILL      PTSUNNY   57  39  51 W16G28    29.73R
GILLAM         PTSUNNY   55  43  62 W13       29.85R
$$
                ***SASKATCHEWAN***

CITY           SKY/WX    TMP DP  RH WIND       PRES   REMARKS
ESTEVAN        MOSUNNY   70  46  43 N8        29.97F
KINDERSLEY     PTSUNNY   70  46  43 S15G23    29.88F
LLOYDMINSTER   PTSUNNY   66  41  39 S18       29.84F
PRINCE ALBERT  MOSUNNY   66  43  42 VRB2      29.94F
REGINA         MOSUNNY   68  43  40 NW6       29.97F
YORKTON        SUNNY     64  43  45 N10       29.96F
N. BATTLEFORD  MOSUNNY   70  45  40 S9G20     29.90F
LA RONGE       MOSUNNY   63  39  42 W7        29.92F
SASKATOON      PTSUNNY   68  43  40 E5        29.95F
SWIFT CURRENT  MOSUNNY   68  46  45 S13G22    29.92F
$$
NOTE: THESE ARE AUTOMATED STATIONS WITH LIMITED QUALITY CONTROL
      "FAIR" INDICATES FEW OR NO CLOUDS BELOW 12,000 FEET WITH NO
      SIGNIFICANT WEATHER AND/OR OBSTRUCTIONS TO VISIBILITY.
      SKY/WX - SKY CONDITION AND SIGNIFICANT WEATHER.
      TMP - AIR TEMPERATURE.    DP   - DEWPOINT TEMPERATURE.
      RH  - RELATIVE HUMIDITY.  PRES - PRESSURE.
      HX  - HEAT INDEX.         WCI  - WIND CHILL INDEX.
$


USA.gov is the U.S. government's official web portal to all federal, state and local government web resources and services.